DAL2380 KCVG-KBOS

Flight info

Callsign DAL2380
Flight time N/A
Altitude 37000
Route ROCKT4 AHTIY PSB PONCT JFUND2
Aircraft A21N/M-SDE2E3FGHIRWXY/LB1

Departure

Time 2026-04-30 01:06
Airport Cincinnati Northern Kentucky International Airport (KCVG)

Arrival

Time N/A
Airport Boston Logan International Airport (KBOS)
Time Latitude Longitude Altitude Speed Heading
2026-04-30 00:41 39.05384 -84.65661 887 ft 0 kts 127°
2026-04-30 00:50 39.05392 -84.65674 887 ft 2 kts 131°
2026-04-30 00:51 39.05403 -84.65689 887 ft 2 kts 138°
2026-04-30 00:51 39.05417 -84.65701 887 ft 2 kts 157°
2026-04-30 00:51 39.05432 -84.65701 887 ft 2 kts 229°
2026-04-30 00:51 39.05437 -84.65691 887 ft 0 kts 263°
2026-04-30 00:54 39.05436 -84.65699 887 ft 2 kts 263°
2026-04-30 00:54 39.05431 -84.65721 887 ft 3 kts 243°
2026-04-30 00:54 39.05402 -84.65743 886 ft 7 kts 197°
2026-04-30 00:55 39.05336 -84.65748 886 ft 12 kts 180°
2026-04-30 00:55 39.05246 -84.65751 884 ft 10 kts 194°
2026-04-30 00:55 39.05216 -84.65901 882 ft 11 kts 271°
2026-04-30 00:56 39.05215 -84.66011 881 ft 13 kts 270°
2026-04-30 00:56 39.05183 -84.66063 880 ft 3 kts 166°
2026-04-30 00:56 39.05162 -84.66047 874 ft 4 kts 148°
2026-04-30 00:56 39.05131 -84.66024 881 ft 6 kts 155°
2026-04-30 00:57 39.05076 -84.66013 880 ft 10 kts 181°
2026-04-30 00:57 39.04993 -84.66012 879 ft 14 kts 180°
2026-04-30 00:57 39.04875 -84.66012 874 ft 19 kts 175°
2026-04-30 00:57 39.04812 -84.65910 871 ft 12 kts 82°
2026-04-30 00:58 39.04812 -84.65821 872 ft 10 kts 91°
2026-04-30 00:58 39.04812 -84.65731 873 ft 10 kts 90°
2026-04-30 00:58 39.04811 -84.65634 873 ft 12 kts 90°
2026-04-30 00:58 39.04810 -84.65517 872 ft 14 kts 90°
2026-04-30 00:59 39.04810 -84.65390 875 ft 13 kts 90°
2026-04-30 00:59 39.04810 -84.65277 878 ft 12 kts 89°
2026-04-30 00:59 39.04810 -84.65172 880 ft 12 kts 89°
2026-04-30 00:59 39.04810 -84.65056 881 ft 14 kts 90°
2026-04-30 01:00 39.04806 -84.64931 881 ft 13 kts 109°
2026-04-30 01:00 39.04729 -84.64883 882 ft 12 kts 180°
2026-04-30 01:00 39.04637 -84.64883 882 ft 14 kts 179°
2026-04-30 01:00 39.04529 -84.64884 881 ft 17 kts 181°
2026-04-30 01:01 39.04395 -84.64885 878 ft 21 kts 179°
2026-04-30 01:01 39.04243 -84.64885 877 ft 23 kts 181°
2026-04-30 01:01 39.04078 -84.64888 875 ft 25 kts 180°
2026-04-30 01:01 39.03900 -84.64888 877 ft 25 kts 180°
2026-04-30 01:02 39.03724 -84.64888 880 ft 25 kts 180°
2026-04-30 01:02 39.03546 -84.64889 884 ft 25 kts 179°
2026-04-30 01:02 39.03379 -84.64892 887 ft 24 kts 182°
2026-04-30 01:02 39.03204 -84.64887 886 ft 26 kts 178°
2026-04-30 01:03 39.03020 -84.64890 885 ft 27 kts 180°
2026-04-30 01:03 39.02866 -84.64870 880 ft 13 kts 136°
2026-04-30 01:03 39.02856 -84.64815 880 ft 0 kts 90°
2026-04-30 01:03 39.02856 -84.64814 880 ft 0 kts 90°
2026-04-30 01:04 39.02856 -84.64799 880 ft 4 kts 90°
2026-04-30 01:04 39.02857 -84.64743 881 ft 8 kts 83°
2026-04-30 01:04 39.02901 -84.64686 881 ft 11 kts 18°
2026-04-30 01:04 39.02989 -84.64681 880 ft 14 kts 359°
2026-04-30 01:05 39.03139 -84.64677 883 ft 46 kts
2026-04-30 01:05 39.03710 -84.64677 879 ft 119 kts
2026-04-30 01:05 39.04740 -84.64651 1116 ft 157 kts 360°
2026-04-30 01:05 39.05930 -84.64601 1473 ft 190 kts 359°
2026-04-30 01:06 39.07353 -84.64557 1935 ft 216 kts 358°
2026-04-30 01:06 39.08901 -84.64509 2614 ft 233 kts 358°
2026-04-30 01:06 39.10543 -84.64456 3428 ft 238 kts 358°
2026-04-30 01:06 39.12229 -84.64425 4240 ft 246 kts
2026-04-30 01:07 39.13952 -84.64044 5045 ft 255 kts 12°
2026-04-30 01:07 39.15594 -84.63086 5824 ft 267 kts 32°
2026-04-30 01:07 39.16853 -84.61273 6519 ft 282 kts 61°
2026-04-30 01:07 39.17336 -84.58781 7175 ft 294 kts 83°
2026-04-30 01:08 39.17454 -84.56114 7844 ft 302 kts 86°
2026-04-30 01:08 39.17511 -84.53409 8509 ft 310 kts 87°
2026-04-30 01:08 39.17574 -84.50597 9203 ft 317 kts 87°
2026-04-30 01:08 39.17649 -84.47723 9901 ft 324 kts 87°
2026-04-30 01:09 39.17733 -84.44783 10539 ft 331 kts 87°
2026-04-30 01:09 39.17823 -84.41788 11129 ft 341 kts 87°
2026-04-30 01:09 39.17921 -84.38640 11454 ft 360 kts 87°
2026-04-30 01:09 39.18024 -84.35327 11742 ft 379 kts 87°
2026-04-30 01:10 39.18132 -84.31857 12071 ft 395 kts 87°
2026-04-30 01:10 39.18240 -84.28320 12584 ft 404 kts 87°
2026-04-30 01:10 39.18351 -84.24668 12938 ft 409 kts 87°
2026-04-30 01:10 39.18462 -84.20993 13005 ft 411 kts 87°
2026-04-30 01:11 39.18573 -84.17310 13005 ft 412 kts 87°
2026-04-30 01:11 39.18682 -84.13616 13006 ft 412 kts 87°
2026-04-30 01:11 39.18790 -84.09923 13005 ft 412 kts 88°
2026-04-30 01:11 39.18897 -84.06230 13036 ft 413 kts 88°
2026-04-30 01:12 39.19004 -84.02502 13535 ft 417 kts 88°
2026-04-30 01:12 39.19177 -83.98755 14174 ft 421 kts 81°
2026-04-30 01:12 39.19901 -83.95101 14813 ft 421 kts 65°
2026-04-30 01:12 39.21101 -83.91661 15440 ft 422 kts 60°
2026-04-30 01:13 39.22412 -83.88246 16045 ft 426 kts 60°
2026-04-30 01:13 39.23744 -83.84810 16666 ft 430 kts 60°
2026-04-30 01:13 39.25069 -83.81375 17273 ft 434 kts 60°
2026-04-30 01:13 39.26417 -83.77858 17857 ft 438 kts 60°
2026-04-30 01:14 39.27773 -83.74306 18430 ft 442 kts 60°
2026-04-30 01:14 39.29138 -83.70718 18910 ft 446 kts 60°
2026-04-30 01:14 39.30494 -83.67146 19375 ft 451 kts 60°
2026-04-30 01:14 39.31881 -83.63488 19844 ft 455 kts 60°
2026-04-30 01:15 39.33276 -83.59804 20306 ft 458 kts 60°
2026-04-30 01:15 39.34681 -83.56085 20759 ft 462 kts 60°
2026-04-30 01:15 39.36098 -83.52331 21208 ft 466 kts 60°
2026-04-30 01:15 39.37532 -83.48528 21631 ft 471 kts 60°
2026-04-30 01:16 39.38956 -83.44746 22069 ft 475 kts 60°
2026-04-30 01:16 39.40405 -83.40893 22526 ft 479 kts 59°
2026-04-30 01:16 39.41868 -83.36997 22945 ft 483 kts 59°
2026-04-30 01:16 39.43340 -83.33074 23390 ft 487 kts 59°
2026-04-30 01:17 39.44821 -83.29120 23780 ft 490 kts 59°
2026-04-30 01:17 39.46311 -83.25137 24148 ft 493 kts 59°
2026-04-30 01:17 39.47811 -83.21123 24507 ft 496 kts 59°
2026-04-30 01:17 39.49320 -83.17078 24866 ft 499 kts 59°
2026-04-30 01:18 39.50853 -83.13027 25214 ft 502 kts 59°
2026-04-30 01:18 39.52407 -83.08953 25547 ft 504 kts 59°
2026-04-30 01:18 39.53965 -83.04872 25876 ft 507 kts 59°
2026-04-30 01:18 39.55512 -83.00813 26183 ft 510 kts 59°
2026-04-30 01:19 39.57088 -82.96672 26481 ft 512 kts 59°
2026-04-30 01:19 39.58665 -82.92520 26789 ft 515 kts 59°
2026-04-30 01:19 39.60098 -82.88230 27087 ft 524 kts 68°
2026-04-30 01:19 39.60977 -82.83646 27331 ft 531 kts 79°
2026-04-30 01:20 39.61445 -82.78878 27642 ft 534 kts 82°
2026-04-30 01:20 39.61821 -82.74077 27920 ft 536 kts 83°
2026-04-30 01:20 39.62188 -82.69257 28207 ft 538 kts 83°
2026-04-30 01:20 39.62559 -82.64407 28542 ft 539 kts 83°
2026-04-30 01:21 39.62932 -82.59569 28919 ft 539 kts 83°
2026-04-30 01:21 39.63305 -82.54740 29300 ft 538 kts 82°
2026-04-30 01:21 39.63679 -82.49893 29648 ft 538 kts 82°
2026-04-30 01:21 39.64047 -82.45121 29969 ft 539 kts 82°
2026-04-30 01:22 39.64418 -82.40279 30270 ft 538 kts 83°
2026-04-30 01:22 39.64786 -82.35454 30615 ft 536 kts 82°
2026-04-30 01:22 39.65152 -82.30642 30960 ft 534 kts 83°
2026-04-30 01:22 39.65514 -82.25841 31243 ft 534 kts 83°
2026-04-30 01:23 39.65876 -82.21041 31517 ft 533 kts 83°
2026-04-30 01:23 39.66233 -82.16257 31812 ft 533 kts 83°
2026-04-30 01:23 39.66589 -82.11467 32058 ft 532 kts 83°
2026-04-30 01:23 39.66942 -82.06690 32334 ft 531 kts 83°
2026-04-30 01:24 39.67292 -82.01918 32593 ft 530 kts 83°
2026-04-30 01:24 39.67637 -81.97204 32840 ft 530 kts 83°
2026-04-30 01:24 39.67982 -81.92444 33071 ft 529 kts 83°
2026-04-30 01:24 39.68326 -81.87683 33283 ft 529 kts 84°
2026-04-30 01:25 39.68668 -81.82930 33490 ft 529 kts 84°
2026-04-30 01:25 39.69008 -81.78171 33692 ft 529 kts 84°
2026-04-30 01:25 39.69232 -81.75026 33835 ft 528 kts 84°
2026-04-30 01:25 39.69568 -81.70273 34038 ft 527 kts 84°
2026-04-30 01:26 39.69901 -81.65529 34207 ft 527 kts 84°
2026-04-30 01:26 39.70233 -81.60783 34338 ft 527 kts 84°
2026-04-30 01:26 39.70562 -81.56038 34454 ft 527 kts 84°
2026-04-30 01:26 39.70891 -81.51276 34609 ft 527 kts 84°
2026-04-30 01:27 39.71213 -81.46585 34761 ft 526 kts 84°
2026-04-30 01:27 39.71592 -81.41864 34980 ft 525 kts 79°
2026-04-30 01:27 39.72337 -81.37250 35268 ft 519 kts 74°
2026-04-30 01:27 39.73216 -81.32694 35379 ft 519 kts 73°
2026-04-30 01:28 39.75034 -81.23556 35417 ft 524 kts 73°
2026-04-30 01:28 39.76850 -81.14357 35565 ft 525 kts 73°
2026-04-30 01:29 39.78653 -81.05149 35742 ft 526 kts 73°
2026-04-30 01:29 39.80446 -80.95939 35877 ft 528 kts 74°
2026-04-30 01:30 39.82244 -80.86664 35975 ft 530 kts 74°
2026-04-30 01:30 39.84034 -80.77381 36101 ft 531 kts 74°
2026-04-30 01:31 39.85827 -80.68038 36232 ft 532 kts 74°
2026-04-30 01:31 39.87616 -80.58677 36397 ft 533 kts 74°
2026-04-30 01:32 39.88509 -80.53987 36558 ft 531 kts 74°
2026-04-30 01:32 39.89395 -80.49324 36653 ft 530 kts 75°
2026-04-30 01:32 39.91243 -80.40018 36706 ft 531 kts 68°
2026-04-30 01:33 39.94398 -80.31354 36738 ft 527 kts 57°